Terug naar catalogus

STARLINK-34283

ActiefCommunicatieVLEO
NORAD 64214·PAYLOAD·🇺🇸 United States

Gelanceerd May 31, 2025 vanaf Vandenberg Space Force Base

Loading…

Volgende Passages (komende 24 uur)

TLE

VersSource: CelesTrak SupGP

Epoch: Sep 14, 2026, 21:18 UTC

1 64214C 25117M   26257.88798611  .00041825  00000+0  12355-2 0  2577
2 64214  53.1583 236.2803 0001493  89.9273  13.7774 15.34376506    13

Volg STARLINK-34283 in realtime met AllMySat

Download on the App Store